DW3637 Weather Reports


Display with metric or nautical units.
time (UTC)temp
F
wind
direction
speed
MPH
gust
MPH
rain 1hr
in
rain 24hr
in
rain mn
in
humidity
%
barometer
mb
20260510014516 53 0.0 0.0 0.00 0.36 0.36 96 1011.0
20260510013516 53 0.0 0.0 0.00 0.36 0.36 96 1011.1
20260510012536 53 0.0 0.0 0.00 0.36 0.36 96 1010.9
20260510011536 53 0.0 0.0 0.00 0.36 0.36 96 1010.6
20260510010516 53 0.0 0.0 0.00 0.36 0.36 95 1010.3
20260510005538 53 0.0 0.0 0.00 0.36 0.36 95 1010.4
20260510004517 53 0.0 0.0 0.00 0.36 0.36 95 1010.4
20260510003516 53 0.0 1.0 0.00 0.36 0.36 95 1010.2
20260510002516 53 0.0 1.0 0.00 0.36 0.36 95 1010.2
20260510001515 53 0.0 1.0 0.00 0.36 0.36 95 1010.0
20260510000516 53 0.0 1.0 0.00 0.36 0.36 95 1010.2
20260509235519 53 0.0 1.0 0.00 0.36 0.36 95 1010.2
20260509234516 53 0.0 1.0 0.00 0.36 0.36 95 1010.1
20260509233517 53 0.0 3.0 0.01 0.36 0.36 95 1010.1
20260509232516 53 0.0 1.0 0.01 0.36 0.36 95 1010.2
20260509231516 53 248 1.0 6.0 0.02 0.36 0.36 95 1010.1
20260509230516 53 248 1.0 2.0 0.03 0.36 0.36 95 1010.1
20260509225522 53 225 1.0 3.0 0.05 0.36 0.36 96 1010.0
20260509224516 53 0.0 1.0 0.05 0.36 0.36 96 1010.0
20260509223516 53 0.0 2.0 0.05 0.35 0.35 96 1010.1
20260509222516 53 248 1.0 3.0 0.05 0.35 0.35 95 1010.2
20260509221522 53 225 1.0 3.0 0.05 0.34 0.34 95 1010.0
20260509220516 52 0.0 1.0 0.05 0.33 0.33 95 1009.9
20260509215516 52 0.0 2.0 0.04 0.31 0.31 95 1010.1
20260509214517 52 0.0 1.0 0.05 0.31 0.31 95 1010.3
20260509213516 52 0.0 1.0 0.05 0.30 0.30 95 1010.5
20260509212516 52 0.0 1.0 0.06 0.30 0.30 94 1010.5
20260509211515 52 0.0 0.0 0.06 0.29 0.29 95 1010.7
20260509210515 51 0.0 1.0 0.07 0.28 0.28 94 1010.6
20260509205516 51 0.0 0.0 0.07 0.27 0.27 94 1010.7
20260509204515 51 0.0 2.0 0.07 0.26 0.26 94 1010.7
20260509203515 51 0.0 1.0 0.07 0.25 0.25 94 1011.0
20260509202517 51 0.0 1.0 0.07 0.24 0.24 94 1011.0
20260509201517 51 0.0 1.0 0.06 0.23 0.23 94 1011.2
20260509200518 51 0.0 0.0 0.05 0.21 0.21 93 1011.5
20260509195519 51 0.0 0.0 0.04 0.20 0.20 93 1011.4
20260509194517 51 0.0 1.0 0.03 0.19 0.19 93 1011.3
20260509193537 51 0.0 1.0 0.02 0.18 0.18 93 1011.3
20260509192518 51 0.0 1.0 0.01 0.17 0.17 93 1011.2
20260509191517 51 0.0 1.0 0.01 0.17 0.17 93 1011.3
20260509190538 51 0.0 2.0 0.00 0.16 0.16 93 1011.3
20260509185520 51 0.0 1.0 0.00 0.16 0.16 93 1011.3
20260509184558 51 0.0 1.0 0.00 0.16 0.16 93 1011.0
20260509183517 51 0.0 1.0 0.00 0.16 0.16 93 1011.0
20260509182517 51 0.0 3.0 0.00 0.16 0.16 93 1011.1
20260509181517 51 90 1.0 3.0 0.00 0.16 0.16 93 1011.2
20260509180517 51 0.0 0.0 0.01 0.16 0.16 93 1011.4
20260509175520 51 0.0 1.0 0.02 0.16 0.16 93 1011.5
20260509174517 50 0.0 2.0 0.02 0.16 0.16 93 1011.5
20260509173517 50 0.0 1.0 0.03 0.16 0.16 93 1011.8
20260509172524 50 68 1.0 3.0 0.03 0.16 0.16 93 1011.6
20260509171600 50 0.0 1.0 0.04 0.16 0.16 93 1012.0
20260509170537 50 90 1.0 3.0 0.03 0.15 0.15 92 1012.1
20260509165517 50 0.0 2.0 0.02 0.14 0.14 92 1012.2
20260509164518 50 0.0 1.0 0.02 0.14 0.14 92 1012.4
20260509163520 50 0.0 0.0 0.02 0.13 0.13 92 1012.3
20260509162517 50 0.0 1.0 0.02 0.13 0.13 92 1012.4
20260509161518 51 0.0 1.0 0.01 0.12 0.12 92 1012.4
20260509160518 50 0.0 2.0 0.01 0.12 0.12 92 1012.7
20260509155518 50 0.0 2.0 0.01 0.12 0.12 92 1012.7
20260509154517 50 0.0 1.0 0.01 0.12 0.12 93 1012.6
20260509153521 49 0.0 1.0 0.00 0.11 0.11 92 1012.7
20260509152532 49 270 1.0 2.0 0.01 0.11 0.11 91 1012.8
20260509151517 49 0.0 1.0 0.01 0.11 0.11 92 1012.3
20260509150537 49 0.0 0.0 0.01 0.11 0.11 93 1012.4
20260509145518 48 0.0 1.0 0.01 0.11 0.11 92 1012.3
20260509144517 48 0.0 1.0 0.01 0.11 0.11 92 1012.4
20260509143517 47 0.0 2.0 0.02 0.11 0.11 92 1012.7
20260509142517 47 0.0 2.0 0.01 0.10 0.10 92 1012.8
20260509141537 47 0.0 1.0 0.01 0.10 0.10 93 1012.8
20260509140517 47 68 1.0 4.0 0.01 0.10 0.10 92 1012.8
20260509135517 47 0.0 4.0 0.01 0.10 0.10 92 1012.8
20260509134517 46 0.0 1.0 0.01 0.10 0.10 93 1013.2
20260509133517 46 0.0 1.0 0.00 0.09 0.09 93 1013.3
20260509132517 46 0.0 1.0 0.00 0.09 0.09 93 1013.4
20260509131537 46 0.0 1.0 0.00 0.09 0.09 93 1013.4
20260509130517 46 0.0 1.0 0.01 0.09 0.09 93 1013.5
20260509125519 45 0.0 0.0 0.01 0.09 0.09 93 1013.4
20260509124517 45 0.0 0.0 0.01 0.09 0.09 93 1013.5
20260509123517 44 0.0 1.0 0.02 0.09 0.09 93 1013.5
20260509122556 44 0.0 2.0 0.02 0.09 0.09 92 1013.5
20260509121522 44 0.0 2.0 0.02 0.09 0.09 93 1013.6
20260509120525 43 0.0 1.0 0.01 0.08 0.08 92 1013.7
20260509115538 43 0.0 1.0 0.01 0.08 0.08 92 1013.8
20260509114538 43 0.0 1.0 0.02 0.08 0.08 92 1013.9
20260509113517 43 0.0 0.0 0.01 0.07 0.07 92 1013.8
20260509112517 43 0.0 1.0 0.02 0.07 0.07 92 1014.0
20260509111517 43 0.0 2.0 0.02 0.07 0.07 91 1014.1
20260509110517 43 0.0 0.0 0.03 0.07 0.07 91 1014.1
20260509105520 43 0.0 1.0 0.04 0.07 0.07 91 1014.2
20260509104602 43 0.0 0.0 0.03 0.06 0.06 91 1014.4
20260509103516 43 0.0 0.0 0.03 0.06 0.06 90 1014.4
20260509102517 43 0.0 0.0 0.03 0.05 0.05 90 1014.2
20260509101516 43 0.0 0.0 0.04 0.05 0.05 89 1014.0
20260509100537 43 0.0 0.0 0.04 0.04 0.04 89 1014.0
20260509095519 43 0.0 1.0 0.03 0.03 0.03 89 1013.8
20260509094516 43 0.0 1.0 0.03 0.03 0.03 88 1013.6
20260509093516 43 0.0 1.0 0.03 0.03 0.03 87 1013.6
20260509092516 43 0.0 1.0 0.02 0.02 0.02 87 1013.5
20260509091516 43 0.0 1.0 0.01 0.01 0.01 86 1013.5
20260509090516 43 0.0 0.0 0.00 0.00 0.00 86 1013.6
20260509085517 43 0.0 1.0 0.00 0.00 0.00 85 1013.4
20260509084538 43 0.0 1.0 0.00 0.00 0.00 85 1013.3
20260509083516 43 0.0 0.0 0.00 0.00 0.00 85 1013.2
20260509082517 43 0.0 1.0 0.00 0.00 0.00 85 1013.0
20260509081536 43 0.0 1.0 0.00 0.00 0.00 86 1012.9
20260509080517 43 0.0 2.0 0.00 0.00 0.00 86 1012.8
20260509075536 43 0.0 1.0 0.00 0.00 0.00 86 1012.8
20260509074516 43 0.0 0.0 0.00 0.00 0.00 86 1012.9
20260509073517 42 0.0 1.0 0.00 0.00 0.00 87 1012.8
20260509072516 42 0.0 1.0 0.00 0.00 0.00 87 1013.0
20260509071522 42 0.0 0.0 0.00 0.00 0.00 87 1013.0
20260509070516 41 0.0 0.0 0.00 0.00 0.00 87 1012.9
20260509065519 41 0.0 0.0 0.00 0.00 0.00 87 1012.9
20260509064517 41 0.0 0.0 0.00 0.00 0.00 87 1013.1
20260509063516 41 0.0 1.0 0.00 0.00 0.00 87 1013.2
20260509062516 41 0.0 1.0 0.00 0.00 0.00 87 1013.2
20260509061536 40 0.0 0.0 0.00 0.00 0.00 86 1013.3
20260509060516 41 0.0 0.0 0.00 0.00 0.00 86 1013.3
20260509055520 41 0.0 0.0 0.00 0.00 0.00 86 1013.4
20260509054516 41 0.0 0.0 0.00 0.00 0.00 86 1013.3
20260509053516 40 0.0 0.0 0.00 0.00 0.00 86 1013.3
20260509052537 39 0.0 0.0 0.00 0.00 0.00 85 1013.4
20260509051516 39 0.0 0.0 0.00 0.00 0.00 84 1013.4
20260509050517 40 0.0 0.0 0.00 0.00 0.00 83 1013.2
20260509045516 40 0.0 0.0 0.00 0.00 0.00 83 1012.9
20260509044516 41 0.0 0.0 0.00 0.00 0.00 82 1012.9
20260509043521 41 0.0 0.0 0.00 0.00 0.00 82 1012.9
20260509042516 41 0.0 0.0 0.00 0.00 0.00 81 1012.9
20260509041521 41 0.0 0.0 0.00 0.00 0.00 80 1012.9
20260509040516 42 0.0 0.0 0.00 0.00 0.00 80 1012.8
20260509035522 42 0.0 0.0 0.00 0.00 0.00 80 1012.9
20260509034516 42 0.0 0.0 0.00 0.00 0.00 79 1012.9
20260509033516 42 0.0 0.0 0.00 0.00 0.00 77 1012.8
20260509032516 43 0.0 0.0 0.00 0.00 0.00 77 1012.7
20260509031516 43 0.0 0.0 0.00 0.00 0.00 76 1012.8
20260509030523 43 0.0 0.0 0.00 0.00 0.00 75 1012.6
20260509025518 43 0.0 0.0 0.00 0.00 0.00 74 1012.6
20260509024516 43 0.0 0.0 0.00 0.00 0.00 73 1012.7
20260509023516 44 0.0 0.0 0.00 0.00 0.00 73 1012.7
20260509022516 44 0.0 0.0 0.00 0.00 0.00 72 1012.5
20260509021516 44 0.0 0.0 0.00 0.00 0.00 71 1012.4
20260509020516 44 0.0 0.0 0.00 0.00 0.00 71 1012.3
20260509015524 45 0.0 0.0 0.00 0.00 0.00 71 1012.3